Powrót do katalogu

STARLINK-32861

AktywnyŁącznośćVLEO
NORAD 62870·PAYLOAD·🇺🇸 United States

Wystrzelony Feb 1, 2025 z Vandenberg Space Force Base

Loading…

Następne Przeloty (najbliższe 24 godziny)

TLE

ŚwieżeSource: CelesTrak SupGP

Epoka: Sep 14, 2026, 22:55 UTC

1 62870C 25022S   26257.95534722  .00021531  00000+0  63635-3 0  2577
2 62870  53.1588 325.9663 0001133  93.5014 187.1905 15.34369241    19

Śledź STARLINK-32861 w czasie rzeczywistym z AllMySat

Download on the App Store